Cloud_Cover
4 5 5 5 5 5 34 25 69 41 64 53 24 6 5 5 31 80 37 5 5 10 5 5 5 3 5 5 4 0 0 0 17 72 91 26 5 1 0 0 0 0 2 100
0 0 0 3 4 11 63 5 5 5 5 20 5 5 5 36 16 41 48 6 5 5 5 5 8 9 34 9 5 3 0 0 0 0 30 85 5 5 0 0 0 0 2 95
1 5 5 5 2 5 4 5 5 5 5 5 5 6 31 100 53 5 45 58 76 61 42 16 5 5 5 26 5 5 5 4 5 4 0 4 5 5 0 2 2 3 3 79
5 5 5 5 3 0 0 0 1 2 5 5 5 35 41 100 100 97 52 5 5 5 41 77 72 15 5 5 5 5 5 36 5 5 94 12 5 5 5 8 5 0 5 5
5 5 0 5 0 0 2 0 5 5 5 5 5 94 100 100 100 83 18 97 5 5 13 65 100 96 24 5 5 5 5 5 14 54 14 100 55 2 29 35 5 0 5 10
5 5 0 5 5 5 5 5 5 5 5 5 12 64 80 49 100 100 52 20 74 27 5 56 59 80 64 59 12 5 5 0 1 21 27 40 100 100 14 5 3 5 1 5
5 5 3 5 5 5 5 5 5 5 5 6 7 15 32 11 52 97 22 43 63 27 38 23 5 7 84 56 53 10 5 5 5 5 5 5 82 100 100 73 5 5 5 52
5 7 5 4 5 5 5 16 6 5 5 5 5 19 5 6 5 71 98 96 100 100 100 92 21 55 10 68 91 47 32 5 5 68 11 4 5 21 68 100 100 46 5 35
5 5 5 5 5 5 32 18 6 51 18 8 32 88 61 84 100 81 100 100 100 100 100 99 22 5 13 5 5 54 93 100 90 46 5 5 4 21 10 7 96 88 4 87
5 9 5 5 5 65 84 72 34 18 97 5 43 60 97 88 100 100 100 86 18 20 13 8 5 5 5 34 100 86 100 100 97 78 47 9 23 20 28 35 5 11 1 1
5 5 5 5 5 53 66 40 58 37 97 6 11 96 100 98 98 100 92 11 5 5 13 1 0 5 3 4 67 100 60 5 5 4 5 56 99 67 16 64 27 5 4 0
5 5 5 8 5 5 5 5 35 93 42 6 5 22 100 100 100 100 31 5 1 4 2 4 5 5 5 5 5 5 5 1 0 0 1 12 69 8 4 5 51 5 68 1
5 5 5 5 5 5 6 10 32 21 59 39 29 63 100 97 39 5 2 0 4 4 1 0 8 9 19 5 5 5 5 16 5 3 4 0 71 99 41 23 5 5 52 5
5 5 5 5 29 76 100 16 3 5 55 91 6 31 5 6 0 0 0 4 5 6 5 5 4 5 5 5 5 5 4 5 5 5 28 5 5 6 79 16 3 5 5 4
45 5 49 100 100 100 16 18 15 18 37 46 24 6 5 3 0 4 5 5 5 44 6 30 98 17 5 3 5 13 3 0 0 39 93 4 4 0 5 5 10 11 5 0
100 72 92 93 100 86 89 94 90 100 100 100 74 3 1 0 0 1 5 5 70 64 7 33 49 100 99 87 15 1 0 1 7 100 40 3 5 0 2 3 62 5 4 8
100 63 100 100 68 46 12 46 85 98 100 100 67 4 34 53 55 48 32 11 28 91 100 57 11 93 100 71 5 66 79 90 89 95 96 100 100 73 11 5 33 5 33 99
64 84 100 95 63 96 38 6 50 66 76 59 87 15 5 12 86 72 85 74 53 27 43 30 11 32 72 64 98 22 6 7 37 82 92 95 62 98 37 5 5 5 70 100
62 57 92 99 86 100 100 100 100 97 55 68 66 47 6 6 7 5 5 5 25 9 5 5 10 5 6 23 8 26 6 22 88 100 100 100 100 77 79 26 73 71 100 92
100 100 95 96 96 100 96 95 96 99 100 62 100 95 100 43 100 14 34 96 14 6 15 27 32 40 78 99 100 88 12 41 100 98 100 100 86 45 65 9 85 100 78 90
62 65 73 65 94 95 100 97 100 94 100 82 100 99 100 98 96 82 62 8 11 100 99 100 100 100 100 100 100 93 40 71 100 81 100 100 72 90 57 36 57 100 99 64
89 56 34 12 39 92 85 100 90 97 100 97 77 85 35 88 99 100 100 100 100 100 100 100 100 100 100 100 100 100 100 84 65 100 100 88 88 94 73 100 66 72 40 8
32 74 58 88 60 82 98 97 100 100 99 99 22 100 100 100 100 100 100 100 100 100 100 100 100 100 100 100 100 100 100 100 100 92 85 86 46 86 95 100 100 100 63 82
70 52 100 68 39 85 93 94 97 97 73 37 100 100 100 100 100 100 100 100 100 100 100 100 100 100 100 100 100 100 100 100 100 100 100 100 100 100 100 100 100 100 100 100
100 93 75 51 60 62 100 100 94 100 76 100 100 100 100 100 100 100 100 100 100 100 100 100 100 100 100 100 100 100 100 100 100 100 100 100 100 100 100 90 98 100 100 100
100 100 87 36 46 80 100 100 100 96 46 100 100 100 100 100 100 100 100 100 100 100 100 100 100 100 100 100 100 100 100 100 100 100 100 100 100 100 97 100 100 100 100 100
88 88 100 55 55 82 100 100 100 25 60 100 100 100 100 100 100 100 100 100 100 100 100 100 100 100 100 100 100 100 100 100 100 100 100 100 100 95 54 94 98 100 100 100